Tracking 22780 objects as of 11-Apr-2021
HD Live streaming from Space Station
objects crossing your sky now

ARIANE 5 DEB (SYLDA)


ARIANE 5 DEB (SYLDA) is no longer on orbit


NORAD ID: 40616
Int'l Code: 2015-022D
Perigee: N/A
Apogee: N/A
Inclination: N/A
Period: N/A
Semi major axis: N/A
RCS: N/A
Launch date: April 26, 2015
Source: France (FR)
Launch site: FRENCH GUIANA (FRGUI)
Decay date: 2019-03-10

Note: This is SATELLITE DEBRIS
aabbcc
Your satellite tracking list
Your tracking list is empty




NASA's NSSDC Master Catalog

Two Line Element Set (TLE):
1 40616U 15022D   19068.64077111  .16460914 -29384-4  12944-2 0  9992
2 40616   5.6416 207.0494 0458984  59.3238 313.2398 15.39811193 63587
Source of the keplerian elements: AFSPC